Regional Weather Roundup
Issued by NWS

Home | Current Version | Previous Version | Text Only | Print | Product List | Glossary On
Versions: 1 2 3 4 5 6 7 8 9 10 11 12 13 14 15 16 17 18 19 20 21 22 23 24 25 26 27 28 29 30 31 32 33 34 35 36 37 38 39 40 41 42 43 44 45 46 47 48 49 50
000
ASUS44 KOUN 291610
RWROK

WEATHER ROUNDUP FOR OKLAHOMA
NATIONAL WEATHER SERVICE NORMAN OK
1100 AM CDT MON MAY 29 2017

NOTE: "FAIR" INDICATES FEW OR NO CLOUDS BELOW 12,000 FEET WITH NO
      SIGNIFICANT WEATHER AND/OR OBSTRUCTIONS TO VISIBILITY.

OKZ001>007-009>012-014-015-017-291700-
NORTHWEST OKLAHOMA AND THE PANHANDLE

CITY           SKY/WX    TMP DP  RH WIND       PRES   REMARKS
GAGE           SUNNY     79  49  34 NW10      30.12S
GUYMON         CLOUDY    70  50  49 VRB5      30.19F
ENID/WOODRING  MOSUNNY   82  52  34 NW7       30.05F
$$

OKZ016-021>023-033>039-044-045-291700-
SOUTHWEST OKLAHOMA

CITY           SKY/WX    TMP DP  RH WIND       PRES   REMARKS
LAWTON/REGL    SUNNY     82  56  40 VRB6      30.09
LAWTON/FT SILL SUNNY     81  57  43 W6        30.08S
FREDERICK      SUNNY     81  52  36 VRB3      30.08S
CLINTON        SUNNY     82  43  25 VRB6      30.13R
HOBART         SUNNY     82  46  28 W8        30.12S
ALTUS AFB      SUNNY     81  43  26 CALM      30.11S
$$

OKZ018>020-024>031-291700-
CENTRAL OKLAHOMA

CITY           SKY/WX    TMP DP  RH WIND       PRES   REMARKS
OKLAHOMA CITY  PTSUNNY   80  48  32 W9        30.08S
OKC/WILEY POST SUNNY     83  49  30 W7        30.08R
OKC/TINKER AFB SUNNY     81  47  30 W8        30.07S
STILLWATER     SUNNY     81  50  33 W9        30.06S
GUTHRIE        SUNNY     81  53  37 NW12      30.07R
$$

OKZ008-013-054>072-291700-
NORTHEAST OKLAHOMA

CITY           SKY/WX    TMP DP  RH WIND       PRES   REMARKS
TULSA          PTSUNNY   81  58  45 NW10      30.04R
TULSA/JONES    SUNNY     81  57  43 VRB6      30.06R
PONCA CITY     SUNNY     80  52  37 W5        30.05S
BARTLESVILLE   SUNNY     80  53  39 VRB3      30.05R
MUSKOGEE       SUNNY     79  64  60 SW6       30.07R
$$

OKZ032-040>043-046>053-073>077-291700-
SOUTH CENTRAL/SOUTHEAST OKLAHOMA

CITY           SKY/WX    TMP DP  RH WIND       PRES   REMARKS
ARDMORE/DWNTWN MOSUNNY   79  55  44 CALM      30.09R
MCALESTER        N/A    N/A N/A N/A MISG      30.08R
$$




USA.gov is the U.S. government's official web portal to all federal, state and local government web resources and services.